STARLINK-5691, 55478

Orbit data source: Space-Track

STARLINK-5691, 55478 is a payload satellite owned by SpaceX/Seattle (US) in LEO that was launched on Thu, 02 Feb 2023 UTC via an FALCON 9 launch vehicle from the Air Force Eastern Test Range (AFETR). Payload-class satellites include a variety of spacecraft equipped with specific instruments for various scientific and technological missions. These include communications satellites like Starlink; space stations such as the ISS; scientific satellites like the Hubble; Earth observation satellites from companies like Planet Labs, Umbra, and HawkEye 360; GPS; miniature CubeSats for education and research; and military/defense satellites.

Loading next visibility...
Identifier
55478, 2023-015AF
Orbit
LEO
Country
Flag of USUS
Related business
Manufacturer
SpaceX/Seattle
Mission
Operational Commercial Communications
Bus & Motor
STARLINK, Unknown motor
Mass
305 kg wet, ~290 kg dry
Launch date (UTC)
2023-02-02 (3 years ago)
Launch vehicle
FALCON 9
Launch site
Air Force Eastern Test Range (AFETR)
Object type
Payload
Rocket body
Debris
Shape & HBR
Box + 1 Pan, 10.1 m
Radar Cross Section
13.562 m², Large (>1 m²)

Expand to show TLE details & history
Last TLE update: 15 hours ago

TLE from 15 hours ago
0 STARLINK-5691
1 55478U 23015AF  26035.35487166 -.00000117  00000-0  64143-5 0  9999
2 55478  43.0028 134.6224 0001455 269.6623  90.4052 15.02534922165880
Epoch: 2026-02-04T08:31Z
TLE epoch observation values (Epoch: 2026-02-04T08:31:00.911Z)
Latitude
-0.00006°
Longitude
-127.65411°
Altitude
558.868 km
Speed
7.584 km/s
True Right ascension
08h 58m 29s
True Declination
0° 00' 00"
Sunlit
Object was in full shadow at epoch
Visualization orbit readout
Latitude
Unknown
Longitude
Unknown
Altitude
Unknown
Speed
Unknown
Apparent Right ascension
Unknown
Apparent Declination
Unknown
Sunlit
N/A
Visualization observer readout
Local Sidereal Time
01:41:08
Azimuth
Unknown
Elevation
Unknown
Doppler factor
Unknown
Orbital elements
Apogee altitude
562.016 km
Perigee altitude
559.997 km
Semi-major axis
6,939.143 km
Eccentricity
0.00015
Inclination
43.0028°
RAAN
134.6224°
Arg. of periapsis
269.6623°
True anomaly
90.42187°
Mean anomaly
90.4052°
Eccentric anomaly
90.41354°
Mean motion
3.75478 °/min
Orbital period
95.88 mins
BSTAR
0.0000064143
Loading maneuver chart data...
Computing Atmospheric mass density...
Loading historical data...
Loading historical data...
Loading historical data...
Loading historical data...
Loading historical data...
Loading historical data...
Loading historical data...

Documentation

Showing up to 5 results
|